FW3054 Weather Reports


Display with metric or nautical units.
time (UTC)temp
F
wind
direction
speed
MPH
gust
MPH
rain 1hr
in
rain 24hr
in
rain mn
in
humidity
%
barometer
mb
20260506231521 65 0.0 0.0 0.02 0.38 0.38 88 1013.9
20260506230521 65 0.0 0.0 0.00 0.36 0.36 88 1013.7
20260506225520 65 0.0 0.0 0.01 0.36 0.36 88 1013.8
20260506224546 65 0.0 0.0 0.03 0.36 0.36 89 1013.4
20260506223520 66 0.0 0.0 0.04 0.36 0.36 89 1013.6
20260506222545 66 0.0 1.0 0.04 0.36 0.36 89 1013.2
20260506221520 66 0.0 0.0 0.05 0.36 0.36 89 1012.9
20260506220520 67 0.0 0.0 0.05 0.36 0.36 88 1013.3
20260506215521 67 0.0 0.0 0.04 0.35 0.35 88 1013.1
20260506214520 68 0.0 0.0 0.02 0.33 0.33 87 1014.0
20260506213520 68 0.0 0.0 0.01 0.32 0.32 86 1014.5
20260506212521 69 0.0 0.0 0.01 0.32 0.32 85 1013.8
20260506211546 70 0.0 0.0 0.00 0.31 0.31 83 1014.0
20260506210521 71 0.0 0.0 0.00 0.31 0.31 81 1014.1
20260506205521 72 0.0 0.0 0.00 0.31 0.31 80 1014.5
20260506204611 72 0.0 1.0 0.00 0.31 0.31 77 1014.5
20260506203520 73 0.0 0.0 0.00 0.31 0.31 74 1014.4
20260506202520 73 0.0 1.0 0.00 0.31 0.31 73 1014.3
20260506201520 73 0.0 2.0 0.00 0.31 0.31 75 1014.3
20260506200545 73 23 1.0 3.0 0.00 0.31 0.31 77 1013.8
20260506195520 73 0.0 1.0 0.00 0.31 0.31 78 1013.8
20260506194520 73 0.0 1.0 0.00 0.31 0.31 76 1014.2
20260506193546 74 0.0 1.0 0.00 0.31 0.31 76 1013.6
20260506192520 74 0.0 0.0 0.00 0.31 0.31 76 1013.9
20260506191520 74 0.0 1.0 0.00 0.31 0.31 75 1014.1
20260506190520 74 0.0 1.0 0.00 0.31 0.31 75 1013.9
20260506185522 73 0.0 1.0 0.00 0.31 0.31 78 1014.0
20260506184522 72 0.0 0.0 0.00 0.31 0.31 79 1013.8
20260506183522 72 0.0 1.0 0.00 0.31 0.31 80 1014.0
20260506182522 72 0.0 1.0 0.00 0.31 0.31 82 1013.8
20260506181612 71 0.0 1.0 0.00 0.31 0.31 85 1014.0
20260506180522 70 0.0 0.0 0.00 0.31 0.31 89 1014.0
20260506175547 68 0.0 0.0 0.00 0.31 0.31 88 1013.8
20260506174522 67 0.0 0.0 0.00 0.31 0.31 80 1013.5
20260506173522 65 0.0 0.0 0.00 0.31 0.31 79 1013.3
20260506172522 64 0.0 1.0 0.00 0.31 0.31 76 1013.5
20260506171522 63 0.0 1.0 0.01 0.31 0.31 77 1013.6
20260506170522 63 0.0 0.0 0.02 0.31 0.31 80 1013.5
20260506165522 62 0.0 0.0 0.04 0.31 0.31 82 1013.7
20260506164522 62 0.0 0.0 0.05 0.31 0.31 83 1014.6
20260506163522 61 0.0 0.0 0.08 0.31 0.31 85 1015.2
20260506162547 61 0.0 0.0 0.13 0.31 0.31 86 1015.4
20260506161522 61 0.0 0.0 0.26 0.30 0.30 87 1015.7
20260506160522 61 0.0 0.0 0.27 0.29 0.29 88 1016.0
20260506155522 61 0.0 0.0 0.26 0.27 0.27 88 1015.9
20260506154547 61 0 1.0 2.0 0.26 0.26 0.26 89 1015.5
20260506153522 61 0.0 0.0 0.23 0.23 0.23 88 1015.4
20260506152522 62 0.0 0.0 0.18 0.18 0.18 87 1016.0
20260506151522 63 0.0 0.0 0.04 0.04 0.04 85 1015.2
20260506150547 63 0.0 1.0 0.02 0.02 0.02 86 1015.1
20260506145522 63 0.0 0.0 0.01 0.01 0.01 85 1014.5
20260506144522 63 0.0 0.0 0.00 0.00 0.00 84 1014.7
20260506143522 63 0.0 0.0 0.00 0.00 0.00 83 1014.2
20260506142522 63 0.0 0.0 0.00 0.00 0.00 82 1014.3
20260506141522 62 0.0 0.0 0.00 0.00 0.00 81 1014.3
20260506140522 62 0.0 0.0 0.00 0.00 0.00 82 1014.2
20260506135522 62 0.0 0.0 0.00 0.00 0.00 81 1013.9
20260506134521 63 0.0 0.0 0.00 0.00 0.00 79 1013.9
20260506133547 63 0.0 0.0 0.00 0.00 0.00 78 1013.5
20260506132522 64 0.0 0.0 0.00 0.00 0.00 77 1014.3
20260506131522 64 0.0 0.0 0.00 0.00 0.00 75 1014.7
20260506130521 64 0.0 0.0 0.00 0.00 0.00 75 1014.2
20260506125521 64 0.0 0.0 0.00 0.00 0.00 76 1014.3
20260506124522 64 0.0 0.0 0.00 0.00 0.00 75 1014.1
20260506123522 64 0.0 1.0 0.00 0.00 0.00 75 1013.8
20260506122522 64 0.0 0.0 0.00 0.00 0.00 72 1014.1
20260506121521 64 0.0 1.0 0.00 0.00 0.00 71 1013.9
20260506120522 65 0.0 1.0 0.00 0.00 0.00 70 1013.8
20260506115521 65 0.0 0.0 0.00 0.00 0.00 70 1014.0
20260506114522 65 0.0 1.0 0.00 0.00 0.00 69 1014.1
20260506113521 65 0.0 2.0 0.00 0.00 0.00 69 1013.8
20260506112521 65 0.0 1.0 0.00 0.00 0.00 69 1013.9
20260506111521 65 0.0 1.0 0.00 0.00 0.00 68 1014.0
20260506110521 65 0.0 1.0 0.00 0.00 0.00 68 1014.0
20260506105521 65 0.0 2.0 0.00 0.00 0.00 67 1013.8
20260506104521 65 135 1.0 2.0 0.00 0.00 0.00 67 1013.5
20260506103521 65 135 1.0 1.0 0.00 0.00 0.00 67 1013.3
20260506102522 65 135 1.0 2.0 0.00 0.00 0.00 67 1013.3
20260506101547 65 135 1.0 2.0 0.00 0.00 0.00 68 1013.1
20260506100546 65 135 1.0 2.0 0.00 0.00 0.00 68 1013.2
20260506095521 65 135 1.0 2.0 0.00 0.00 0.00 68 1013.2
20260506094521 66 135 1.0 2.0 0.00 0.00 0.00 66 1013.1
20260506093521 66 135 1.0 3.0 0.00 0.00 0.00 66 1013.3
20260506092521 66 0.0 1.0 0.00 0.00 0.00 65 1013.3
20260506091546 66 0.0 1.0 0.00 0.00 0.00 64 1013.1
20260506090521 66 0.0 3.0 0.00 0.00 0.00 63 1013.4
20260506085521 66 0.0 3.0 0.00 0.00 0.00 63 1013.4
20260506084521 66 0.0 1.0 0.00 0.00 0.00 62 1013.3
20260506083521 66 0.0 1.0 0.00 0.00 0.00 62 1013.3
20260506082521 66 0.0 1.0 0.00 0.00 0.00 62 1013.3
20260506081521 65 0.0 2.0 0.00 0.00 0.00 62 1013.5
20260506080521 65 0.0 1.0 0.00 0.00 0.00 62 1013.5
20260506073521 60 0.0 2.0 0.00 0.00 0.00 69 1013.4
20260506072521 58 0.0 0.0 0.00 0.00 0.00 73 1013.2
20260506071521 58 0.0 0.0 0.00 0.00 0.00 73 1013.5
20260506070522 59 0.0 1.0 0.00 0.00 0.00 73 1013.8
20260506061521 62 0.0 0.0 0.00 0.00 0.00 66 1015.0
20260506060521 62 0.0 0.0 0.00 0.00 0.00 64 1014.7
20260506050521 64 0.0 1.0 0.00 0.00 0.00 61 1014.4
20260506044521 64 0.0 1.0 0.00 0.00 0.00 61 1015.2
20260506043521 64 0.0 1.0 0.00 0.00 0.00 60 1015.3
20260506042521 64 0.0 0.0 0.00 0.00 0.00 61 1015.2
20260506041546 63 0.0 1.0 0.00 0.00 0.00 63 1014.9
20260506040520 62 0.0 1.0 0.00 0.00 0.00 64 1014.7
20260506035546 62 0.0 1.0 0.00 0.00 0.00 64 1014.8
20260506034521 62 135 1.0 1.0 0.00 0.00 0.00 64 1014.9
20260506033521 62 135 1.0 2.0 0.00 0.00 0.00 64 1014.7
20260506032521 63 0.0 1.0 0.00 0.00 0.00 63 1014.8
20260506031521 63 0.0 1.0 0.00 0.00 0.00 62 1014.8
20260506030521 63 90 1.0 2.0 0.00 0.00 0.00 62 1014.9
20260506025546 63 0.0 1.0 0.00 0.00 0.00 60 1015.3
20260506024521 64 0.0 2.0 0.00 0.00 0.00 58 1015.2
20260506023521 64 0.0 1.0 0.00 0.00 0.00 59 1014.8
20260506022521 64 0.0 1.0 0.00 0.00 0.00 58 1014.6
20260506021521 64 0.0 1.0 0.00 0.00 0.00 57 1014.3
20260506020521 65 0.0 3.0 0.00 0.00 0.00 56 1014.2
20260506015546 65 0.0 1.0 0.00 0.00 0.00 55 1014.2
20260506014520 66 0.0 1.0 0.00 0.00 0.00 54 1014.2
20260506013521 66 0.0 1.0 0.00 0.00 0.00 54 1013.8
20260506012546 66 113 1.0 3.0 0.00 0.00 0.00 55 1014.1
20260506011521 66 0.0 1.0 0.00 0.00 0.00 53 1013.9
20260506010546 66 0.0 1.0 0.00 0.00 0.00 53 1013.7
20260506005521 67 0.0 1.0 0.00 0.00 0.00 52 1013.7
20260506004521 68 0.0 1.0 0.00 0.00 0.00 52 1013.7
20260506003521 68 0.0 1.0 0.00 0.00 0.00 50 1013.5
20260506002520 69 0.0 2.0 0.00 0.00 0.00 48 1013.5
20260506001520 69 0.0 1.0 0.00 0.00 0.00 47 1013.5
20260506000520 69 0.0 2.0 0.00 0.00 0.00 47 1013.3
20260505235521 69 0.0 2.0 0.00 0.00 0.00 46 1013.6
20260505234520 69 0.0 2.0 0.00 0.00 0.00 45 1013.4
20260505233546 70 158 1.0 5.0 0.00 0.00 0.00 45 1013.4
20260505232521 70 135 1.0 3.0 0.00 0.00 0.00 45 1013.5